Year,Month,Day,Hour,Minute,Value (Times are PST for temperature in C)
2022,01,25,16,18,2.00
2022,01,25,16,19,2.00
2022,01,25,16,20,2.00
2022,01,25,16,21,2.00
2022,01,25,16,22,2.00
2022,01,25,16,23,1.90
2022,01,25,16,24,1.90
2022,01,25,16,25,1.90
2022,01,25,16,26,1.90
2022,01,25,16,27,1.90
2022,01,25,16,28,1.90
2022,01,25,16,29,1.90
2022,01,25,16,30,1.90
2022,01,25,16,31,1.90
2022,01,25,16,32,1.90
2022,01,25,16,33,1.90
2022,01,25,16,34,1.90
2022,01,25,16,35,1.90
2022,01,25,16,36,1.90
2022,01,25,16,37,1.90
2022,01,25,16,38,1.80
2022,01,25,16,39,1.80
2022,01,25,16,40,1.80
2022,01,25,16,41,1.80
2022,01,25,16,42,1.80
2022,01,25,16,43,1.80
2022,01,25,16,44,1.80
2022,01,25,16,45,1.80
2022,01,25,16,46,1.80
2022,01,25,16,47,1.80
2022,01,25,16,48,1.80
2022,01,25,16,49,1.80
2022,01,25,16,50,1.80
2022,01,25,16,51,1.80
2022,01,25,16,52,1.80
2022,01,25,16,53,1.80
2022,01,25,16,54,1.80
2022,01,25,16,55,1.80
2022,01,25,16,56,1.80
2022,01,25,16,57,1.80
2022,01,25,16,58,1.70
2022,01,25,16,59,1.70
2022,01,25,17,00,1.70
2022,01,25,17,01,1.70
2022,01,25,17,02,1.70
2022,01,25,17,03,1.70
2022,01,25,17,04,1.70
2022,01,25,17,05,1.70
2022,01,25,17,06,1.70
2022,01,25,17,07,1.70
2022,01,25,17,08,1.70
2022,01,25,17,09,1.70
2022,01,25,17,10,1.70
2022,01,25,17,11,1.70
2022,01,25,17,12,1.70
2022,01,25,17,13,1.70
2022,01,25,17,14,1.70
2022,01,25,17,15,1.70
2022,01,25,17,16,1.70
2022,01,25,17,17,1.70
2022,01,25,17,18,1.70
2022,01,25,17,19,1.70
2022,01,25,17,20,1.70
2022,01,25,17,21,1.70
2022,01,25,17,22,1.70
2022,01,25,17,23,1.60
2022,01,25,17,24,1.60
2022,01,25,17,25,1.60
2022,01,25,17,26,1.60
2022,01,25,17,27,1.60
2022,01,25,17,28,1.60
2022,01,25,17,29,1.60
2022,01,25,17,30,1.60
2022,01,25,17,31,1.60
2022,01,25,17,32,1.60
2022,01,25,17,33,1.60
2022,01,25,17,34,1.60
2022,01,25,17,35,1.60
2022,01,25,17,36,1.70
2022,01,25,17,37,1.60
2022,01,25,17,38,1.70
2022,01,25,17,39,1.70
2022,01,25,17,40,1.70
2022,01,25,17,41,1.70
2022,01,25,17,42,1.70
2022,01,25,17,43,1.70
2022,01,25,17,44,1.70
2022,01,25,17,45,1.70
2022,01,25,17,46,1.70
2022,01,25,17,47,1.60
2022,01,25,17,48,1.60
2022,01,25,17,49,1.70
2022,01,25,17,50,1.70
2022,01,25,17,51,1.60
2022,01,25,17,52,1.60
2022,01,25,17,53,1.70
2022,01,25,17,54,1.60
2022,01,25,17,55,1.60
2022,01,25,17,56,1.60
2022,01,25,17,57,1.70
2022,01,25,17,58,1.70
2022,01,25,17,59,1.70
2022,01,25,18,00,1.70
2022,01,25,18,01,1.70
2022,01,25,18,02,1.70
2022,01,25,18,03,1.70
2022,01,25,18,04,1.70
2022,01,25,18,05,1.70
2022,01,25,18,06,1.70
2022,01,25,18,07,1.70
2022,01,25,18,08,1.70
2022,01,25,18,09,1.70
2022,01,25,18,10,1.70
2022,01,25,18,11,1.70
2022,01,25,18,12,1.70
2022,01,25,18,13,1.70
2022,01,25,18,14,1.70
2022,01,25,18,15,1.70
2022,01,25,18,16,1.70
2022,01,25,18,17,1.70
2022,01,25,18,18,1.70
2022,01,25,18,19,1.70
2022,01,25,18,20,1.60
2022,01,25,18,21,1.60
2022,01,25,18,22,1.60
2022,01,25,18,23,1.60
2022,01,25,18,24,1.60
2022,01,25,18,25,1.60
2022,01,25,18,26,1.60
2022,01,25,18,27,1.60
2022,01,25,18,28,1.60
2022,01,25,18,29,1.60
2022,01,25,18,30,1.60
2022,01,25,18,31,1.60
2022,01,25,18,32,1.60
2022,01,25,18,33,1.60
2022,01,25,18,34,1.60
2022,01,25,18,35,1.60
2022,01,25,18,36,1.60
2022,01,25,18,37,1.60
2022,01,25,18,38,1.60
2022,01,25,18,39,1.60
2022,01,25,18,40,1.60
2022,01,25,18,41,1.60
2022,01,25,18,42,1.60
2022,01,25,18,43,1.60
2022,01,25,18,44,1.60
2022,01,25,18,45,1.60
2022,01,25,18,46,1.60
2022,01,25,18,47,1.60
2022,01,25,18,48,1.60
2022,01,25,18,49,1.60
2022,01,25,18,50,1.60
2022,01,25,18,51,1.60
2022,01,25,18,52,1.60
2022,01,25,18,53,1.60
2022,01,25,18,54,1.60
2022,01,25,18,55,1.60
2022,01,25,18,56,1.60
2022,01,25,18,57,1.60
2022,01,25,18,58,1.60
2022,01,25,18,59,1.60
2022,01,25,19,00,1.60
2022,01,25,19,01,1.60
2022,01,25,19,02,1.60
2022,01,25,19,03,1.60
2022,01,25,19,04,1.60
2022,01,25,19,05,1.60
2022,01,25,19,06,1.60
2022,01,25,19,07,1.60
2022,01,25,19,08,1.60
2022,01,25,19,09,1.60
2022,01,25,19,10,1.50
2022,01,25,19,11,1.50
2022,01,25,19,12,1.50
2022,01,25,19,13,1.50
2022,01,25,19,14,1.50
2022,01,25,19,15,1.50
2022,01,25,19,16,1.50
2022,01,25,19,17,1.40
2022,01,25,19,18,1.40
2022,01,25,19,19,1.40
2022,01,25,19,20,1.40
2022,01,25,19,21,1.40
2022,01,25,19,22,1.40
2022,01,25,19,23,1.40
2022,01,25,19,24,1.40
2022,01,25,19,25,1.40
2022,01,25,19,26,1.40
2022,01,25,19,27,1.40
2022,01,25,19,28,1.40
2022,01,25,19,29,1.40
2022,01,25,19,30,1.40
2022,01,25,19,31,1.40
2022,01,25,19,32,1.40
2022,01,25,19,33,1.40
2022,01,25,19,34,1.40
2022,01,25,19,35,1.40
2022,01,25,19,36,1.40
2022,01,25,19,37,1.40
2022,01,25,19,38,1.40
2022,01,25,19,39,1.40
2022,01,25,19,40,1.40
2022,01,25,19,41,1.40
2022,01,25,19,42,1.30
2022,01,25,19,43,1.30
2022,01,25,19,44,1.30
2022,01,25,19,45,1.30
2022,01,25,19,46,1.30
2022,01,25,19,47,1.30
2022,01,25,19,48,1.30
2022,01,25,19,49,1.30
2022,01,25,19,50,1.30
2022,01,25,19,51,1.30
2022,01,25,19,52,1.30
2022,01,25,19,53,1.30
2022,01,25,19,54,1.30
2022,01,25,19,55,1.30
2022,01,25,19,56,1.30
2022,01,25,19,57,1.30
2022,01,25,19,58,1.30
2022,01,25,19,59,1.30
2022,01,25,20,00,1.30
2022,01,25,20,01,1.30
2022,01,25,20,02,1.30
2022,01,25,20,03,1.30
2022,01,25,20,04,1.30
2022,01,25,20,05,1.30
2022,01,25,20,06,1.30
2022,01,25,20,07,1.30
2022,01,25,20,08,1.30
2022,01,25,20,09,1.30
2022,01,25,20,10,1.30
2022,01,25,20,11,1.30
2022,01,25,20,12,1.30
2022,01,25,20,13,1.30
2022,01,25,20,14,1.30
2022,01,25,20,15,1.30
2022,01,25,20,16,1.30
2022,01,25,20,17,1.30
2022,01,25,20,18,1.30
2022,01,25,20,19,1.30
2022,01,25,20,20,1.30
2022,01,25,20,21,1.30
2022,01,25,20,22,1.30
2022,01,25,20,23,1.30
2022,01,25,20,24,1.30
2022,01,25,20,25,1.30
2022,01,25,20,26,1.30
2022,01,25,20,27,1.30
2022,01,25,20,28,1.30
2022,01,25,20,29,1.30
2022,01,25,20,30,1.30
2022,01,25,20,31,1.30
2022,01,25,20,32,1.30
2022,01,25,20,33,1.30
2022,01,25,20,34,1.30
2022,01,25,20,35,1.30
2022,01,25,20,36,1.30
2022,01,25,20,37,1.30
2022,01,25,20,38,1.30
2022,01,25,20,39,1.30
2022,01,25,20,40,1.30
2022,01,25,20,41,1.30
2022,01,25,20,42,1.30
2022,01,25,20,43,1.30
2022,01,25,20,44,1.30
2022,01,25,20,45,1.30
2022,01,25,20,46,1.30
2022,01,25,20,47,1.30
2022,01,25,20,48,1.30
2022,01,25,20,49,1.30
2022,01,25,20,50,1.30
2022,01,25,20,51,1.30
2022,01,25,20,52,1.30
2022,01,25,20,53,1.30
2022,01,25,20,54,1.30
2022,01,25,20,55,1.30
2022,01,25,20,56,1.30
2022,01,25,20,57,1.20
2022,01,25,20,58,1.20
2022,01,25,20,59,1.20
2022,01,25,21,00,1.20
2022,01,25,21,01,1.20
2022,01,25,21,02,1.20
2022,01,25,21,03,1.10
2022,01,25,21,04,1.10
2022,01,25,21,05,1.10
2022,01,25,21,06,1.10
2022,01,25,21,07,1.10
2022,01,25,21,08,1.10
2022,01,25,21,09,1.10
2022,01,25,21,10,1.10
2022,01,25,21,11,1.00
2022,01,25,21,12,1.00
2022,01,25,21,13,1.00
2022,01,25,21,14,1.00
2022,01,25,21,15,1.00
2022,01,25,21,16,1.00
2022,01,25,21,17,1.00
2022,01,25,21,18,1.00
2022,01,25,21,19,1.00
2022,01,25,21,20,1.00
2022,01,25,21,21,1.00
2022,01,25,21,22,1.00
2022,01,25,21,23,1.00
2022,01,25,21,24,1.00
2022,01,25,21,25,1.00
2022,01,25,21,26,1.00
2022,01,25,21,27,1.00
2022,01,25,21,28,1.00
2022,01,25,21,29,1.00
2022,01,25,21,30,1.00
2022,01,25,21,31,1.00
2022,01,25,21,32,1.10
2022,01,25,21,33,1.10
2022,01,25,21,34,1.10
2022,01,25,21,35,1.10
2022,01,25,21,36,1.10
2022,01,25,21,37,1.10
2022,01,25,21,38,1.10
2022,01,25,21,39,1.10
2022,01,25,21,40,1.10
2022,01,25,21,41,1.10
2022,01,25,21,42,1.10
2022,01,25,21,43,1.10
2022,01,25,21,44,1.10
2022,01,25,21,45,1.10
2022,01,25,21,46,1.10
2022,01,25,21,47,1.10
2022,01,25,21,48,1.20
2022,01,25,21,49,1.20
2022,01,25,21,50,1.20
2022,01,25,21,51,1.20
2022,01,25,21,52,1.20
2022,01,25,21,53,1.20
2022,01,25,21,54,1.20
2022,01,25,21,55,1.20
2022,01,25,21,56,1.20
2022,01,25,21,57,1.20
2022,01,25,21,58,1.20
2022,01,25,21,59,1.20
2022,01,25,22,00,1.20
2022,01,25,22,01,1.20
2022,01,25,22,02,1.20
2022,01,25,22,03,1.20
2022,01,25,22,04,1.20
2022,01,25,22,05,1.20
2022,01,25,22,06,1.20
2022,01,25,22,07,1.20
2022,01,25,22,08,1.20
2022,01,25,22,09,1.20
2022,01,25,22,10,1.30
2022,01,25,22,11,1.30
2022,01,25,22,12,1.30
2022,01,25,22,13,1.30
2022,01,25,22,14,1.30
2022,01,25,22,15,1.30
2022,01,25,22,16,1.30
2022,01,25,22,17,1.30
2022,01,25,22,18,1.30
2022,01,25,22,19,1.30
2022,01,25,22,20,1.30
2022,01,25,22,21,1.30
2022,01,25,22,22,1.30
2022,01,25,22,23,1.30
2022,01,25,22,24,1.30
2022,01,25,22,25,1.30
2022,01,25,22,26,1.30
2022,01,25,22,27,1.30
2022,01,25,22,28,1.30
2022,01,25,22,29,1.30
2022,01,25,22,30,1.30
2022,01,25,22,31,1.30
2022,01,25,22,32,1.30
2022,01,25,22,33,1.30
2022,01,25,22,34,1.30
2022,01,25,22,35,1.30
2022,01,25,22,36,1.30
2022,01,25,22,37,1.30
2022,01,25,22,38,1.30
2022,01,25,22,39,1.30
2022,01,25,22,40,1.30
2022,01,25,22,41,1.30
2022,01,25,22,42,1.30
2022,01,25,22,43,1.30
2022,01,25,22,44,1.30
2022,01,25,22,45,1.30
2022,01,25,22,46,1.30
2022,01,25,22,47,1.30
2022,01,25,22,48,1.30
2022,01,25,22,49,1.30
2022,01,25,22,50,1.30
2022,01,25,22,51,1.30
2022,01,25,22,52,1.30
2022,01,25,22,53,1.30
2022,01,25,22,54,1.30
2022,01,25,22,55,1.30
2022,01,25,22,56,1.30
2022,01,25,22,57,1.30
2022,01,25,22,58,1.30
2022,01,25,22,59,1.30
2022,01,25,23,00,1.30
2022,01,25,23,01,1.30
2022,01,25,23,02,1.30
2022,01,25,23,03,1.30
2022,01,25,23,04,1.30
2022,01,25,23,05,1.30
2022,01,25,23,06,1.30
2022,01,25,23,07,1.30
2022,01,25,23,08,1.30
2022,01,25,23,09,1.30
2022,01,25,23,10,1.30
2022,01,25,23,11,1.30
2022,01,25,23,12,1.30
2022,01,25,23,13,1.30
2022,01,25,23,14,1.30
2022,01,25,23,15,1.30
2022,01,25,23,16,1.30
2022,01,25,23,17,1.30
2022,01,25,23,18,1.30
2022,01,25,23,19,1.30
2022,01,25,23,20,1.30
2022,01,25,23,21,1.30
2022,01,25,23,22,1.30
2022,01,25,23,23,1.20
2022,01,25,23,24,1.20
2022,01,25,23,25,1.20
2022,01,25,23,26,1.20
2022,01,25,23,27,1.20
2022,01,25,23,28,1.20
2022,01,25,23,29,1.20
2022,01,25,23,30,1.20
2022,01,25,23,31,1.20
2022,01,25,23,32,1.20
2022,01,25,23,33,1.20
2022,01,25,23,34,1.20
2022,01,25,23,35,1.20
2022,01,25,23,36,1.20
2022,01,25,23,37,1.20
2022,01,25,23,38,1.20
2022,01,25,23,39,1.20
2022,01,25,23,40,1.20
2022,01,25,23,41,1.20
2022,01,25,23,42,1.20
2022,01,25,23,43,1.20
2022,01,25,23,44,1.20
2022,01,25,23,45,1.20
2022,01,25,23,46,1.20
2022,01,25,23,47,1.20
2022,01,25,23,48,1.20
2022,01,25,23,49,1.20
2022,01,25,23,50,1.20
2022,01,25,23,51,1.20
2022,01,25,23,52,1.20
2022,01,25,23,53,1.20
2022,01,25,23,54,1.20
2022,01,25,23,55,1.20
2022,01,25,23,56,1.20
2022,01,25,23,57,1.20
2022,01,25,23,58,1.20
2022,01,25,23,59,1.10
